, NM

(GMT )
Holloman AFB

Weather History for KHMN - October, 2013

Change the Weather History Date:

Sunday, October 13, 2013

  Actual Average Record
Temperature  
Mean Temperature 64 °F -  
Max Temperature 79 °F 75 °F 89 °F (1996)
Min Temperature 48 °F 47 °F 30 °F (1997)
Degree Days  
Heating Degree Days 2    
Growing Degree Days 14 (Base 50)    
Moisture  
Dew Point 43 °F    
Average Humidity 44    
Maximum Humidity 62    
Minimum Humidity 31    
Precipitation  
Precipitation 0.00 in - - ()
Sea Level Pressure  
Sea Level Pressure 29.92 in    
Wind  
Wind Speed 9 mph (SE)    
Max Wind Speed 20 mph    
Max Gust Speed 23 mph    
Visibility 10 miles    
Events      
Averages and records for this station are not official NWS values.
T = Trace of Precipitation, MM = Missing Value Source: NWS Daily Summary

Daily Weather History Graph

Daily Weather History Graph

Search for Another Location

Airport or City:

Trip Planner

Search our weather history database for the weather conditions in past years. The results will help you decide how hot, cold, wet, or windy it might be!

Date:

Astronomy

Oct. 13, 2013 Rise Set
Actual Time 7:07 AM MDT 6:33 PM MDT
Civil Twilight 6:42 AM MDT 6:58 PM MDT
Nautical Twilight 6:13 AM MDT 7:26 PM MDT
Astronomical Twilight 5:45 AM MDT 7:55 PM MDT
Moon 3:11 PM MDT (10/13) 1:37 AM MDT (10/13)
Length of Visible Light 12h 15m
Length of Day
11h 26m
Waxing Gibbous, 70% of the Moon is Illuminated
Oct 13
Waxing Gibbous
Oct 18
Full
Oct 26
Last Quarter
Nov 3
New
Nov 9
First Quarter

Hourly Weather History & Observations

Time (MDT) Temp. Dew Point Humidity Pressure Visibility Wind Dir Wind Speed Gust Speed Precip Events Conditions
12:58 AM 52.3 °F 34.9 °F 51% 29.95 in 10.0 mi NNW 10.4 mph - N/A   Clear
1:58 AM 54.3 °F 35.2 °F 49% 29.95 in 10.0 mi North 6.9 mph - N/A   Scattered Clouds
2:58 AM 52.2 °F 35.4 °F 53% 29.94 in 10.0 mi NNE 8.1 mph - N/A   Clear
3:58 AM 53.8 °F 36.0 °F 51% 29.92 in 10.0 mi NE 10.4 mph - N/A   Clear
4:58 AM 53.1 °F 36.1 °F 53% 29.93 in 10.0 mi East 8.1 mph - N/A   Clear
5:58 AM 51.3 °F 36.7 °F 57% 29.95 in 10.0 mi ENE 3.5 mph - N/A   Clear
6:58 AM 48.9 °F 36.3 °F 62% 29.98 in 10.0 mi NW 4.6 mph - N/A   Clear
7:58 AM 50.4 °F 36.5 °F 59% 30.00 in 10.0 mi ENE 2.3 mph - N/A   Clear
8:58 AM 60.3 °F 39.9 °F 47% 30.00 in 10.0 mi Calm Calm - N/A   Clear
9:58 AM 67.8 °F 41.9 °F 39% 30.01 in 10.0 mi SE 3.5 mph - N/A   Clear
10:58 AM 70.7 °F 44.1 °F 38% 29.99 in 10.0 mi SSE 4.6 mph - N/A   Clear
11:58 AM 73.8 °F 46.0 °F 37% 29.97 in 10.0 mi SSE 8.1 mph - N/A   Clear
12:58 PM 76.3 °F 52.2 °F 43% 29.93 in 10.0 mi South 10.4 mph - N/A   Clear
1:58 PM 77.9 °F 51.1 °F 39% 29.90 in 10.0 mi South 12.7 mph 18.4 mph N/A   Clear
2:14 PM 78.8 °F 50.0 °F 36% 30.05 in 10.0 mi South 15.0 mph 20.7 mph N/A   Clear
2:58 PM 78.8 °F 50.5 °F 37% 29.87 in 10.0 mi SSE 19.6 mph 23.0 mph N/A   Clear
3:58 PM 79.2 °F 49.5 °F 35% 29.85 in 10.0 mi SSE 16.1 mph - N/A   Clear
4:58 PM 79.2 °F 46.4 °F 31% 29.84 in 10.0 mi SSE 12.7 mph - N/A   Clear
5:58 PM 77.5 °F 47.5 °F 35% 29.86 in 10.0 mi South 13.8 mph - N/A   Clear
6:58 PM 73.6 °F 46.9 °F 39% 29.88 in 10.0 mi SSE 12.7 mph - N/A   Clear
7:58 PM 72.5 °F 45.9 °F 39% 29.88 in 10.0 mi SSE 15.0 mph - N/A   Clear
8:58 PM 73.0 °F 44.8 °F 36% 29.86 in 10.0 mi SSE 15.0 mph - N/A   Clear
9:58 PM 71.6 °F 44.4 °F 38% 29.86 in 10.0 mi SSE 11.5 mph - N/A   Clear
10:58 PM 69.4 °F 45.3 °F 42% 29.85 in 10.0 mi South 12.7 mph - N/A   Clear
11:58 PM 69.1 °F 47.3 °F 46% 29.87 in 10.0 mi South 10.4 mph - N/A   Partly Cloudy